�N����,����,�g�[���i���ԁj���x,�g�[�����x,��g�[���i���ցj���x,����
 2002/12/01, 0:00,18.7,50,17.8,15.7
 2002/12/01, 0:15,18.7,50,17.8,15.7
 2002/12/01, 0:30,18.7,49,17.8,15.8
 2002/12/01, 0:45,18.8,50,17.9,15.9
 2002/12/01, 1:00,18.7,50,17.8,15.9
 2002/12/01, 1:15,18.7,50,17.9,16
 2002/12/01, 1:30,18.7,50,17.7,16
 2002/12/01, 1:45,18.8,49,17.8,16.1
 2002/12/01, 2:00,18.8,49,17.7,16.1
 2002/12/01, 2:15,18.6,50,17.8,16.2
 2002/12/01, 2:30,18.6,50,17.9,16.2
 2002/12/01, 2:45,18.6,49,17.7,16.3
 2002/12/01, 3:00,18.7,49,17.8,16.3
 2002/12/01, 3:15,18.6,50,17.8,16.4
 2002/12/01, 3:30,18.6,50,17.7,16.4
 2002/12/01, 3:45,18.7,49,17.8,16.5
 2002/12/01, 4:00,18.6,49,17.8,16.5
 2002/12/01, 4:15,18.7,49,17.8,16.6
 2002/12/01, 4:30,18.7,49,17.8,16.6
 2002/12/01, 4:45,18.6,49,17.8,16.6
 2002/12/01, 5:00,18.6,49,17.8,16.7
 2002/12/01, 5:15,18.6,49,17.8,16.7
 2002/12/01, 5:30,18.6,49,17.8,16.8
 2002/12/01, 5:45,18.6,49,17.7,16.8
 2002/12/01, 6:00,18.7,49,17.7,16.8
 2002/12/01, 6:15,18.6,49,17.8,16.9
 2002/12/01, 6:30,18.6,49,17.8,16.9
 2002/12/01, 6:45,18.6,49,17.8,17
 2002/12/01, 7:00,18.6,49,17.8,17
 2002/12/01, 7:15,18.6,49,17.9,17
 2002/12/01, 7:30,18.6,49,17.9,17.1
 2002/12/01, 7:45,18.6,49,17.8,17.1
 2002/12/01, 8:00,18.6,49,17.8,17.1
 2002/12/01, 8:15,18.6,49,17.9,17.2
 2002/12/01, 8:30,18.6,49,17.9,17.2
 2002/12/01, 8:45,18.6,49,18,17.3
 2002/12/01, 9:00,18.6,49,17.9,17.3
 2002/12/01, 9:15,18.6,49,17.9,17.3
 2002/12/01, 9:30,18.7,49,17.9,17.3
 2002/12/01, 9:45,18.6,49,18,17.4
 2002/12/01,10:00,18.6,49,18,17.4
 2002/12/01,10:15,18.6,49,18,17.4
 2002/12/01,10:30,18.8,48,17.9,17.5
 2002/12/01,10:45,18.8,48,17.9,17.5
 2002/12/01,11:00,18.7,48,17.9,17.5
 2002/12/01,11:15,18.8,48,18,17.6
 2002/12/01,11:30,18.8,48,18,17.6
 2002/12/01,11:45,18.8,48,18.1,17.6
 2002/12/01,12:00,18.8,48,18,17.7
 2002/12/01,12:15,18.8,47,18,17.7
 2002/12/01,12:30,18.9,47,18,17.7
 2002/12/01,12:45,18.6,46,18.1,17.7
 2002/12/01,13:00,18.9,49,18.2,17.8
 2002/12/01,13:15,18.5,48,18,17.8
 2002/12/01,13:30,18.8,49,18.2,17.8
 2002/12/01,13:45,18.9,49,18.2,17.8
 2002/12/01,14:00,18.9,49,18.2,17.9
 2002/12/01,14:15,19,49,18.2,17.9
 2002/12/01,14:30,19,49,18.2,17.9
 2002/12/01,14:45,19.1,49,18.2,17.9
 2002/12/01,15:00,19,49,18.2,18
 2002/12/01,15:15,19.1,49,18.2,18
 2002/12/01,15:30,19.1,49,18.4,18
 2002/12/01,15:45,19.2,49,18.5,14
 2002/12/01,16:00,19.2,49,18.4,14.1
 2002/12/01,16:15,19.1,49,18.4,14.2
 2002/12/01,16:30,19.1,49,18.3,14.2
 2002/12/01,16:45,18.9,47,18.3,14.3
 2002/12/01,17:00,19.2,49,18.4,14.4
 2002/12/01,17:15,19.2,49,18.3,14.1
 2002/12/01,17:30,19.2,50,18.5,14
 2002/12/01,17:45,18.8,52,18.3,14
 2002/12/01,18:00,19.2,52,18.1,14.1
 2002/12/01,18:15,19.1,51,18,14.2
 2002/12/01,18:30,19.1,49,17.8,14.2
 2002/12/01,18:45,19.1,50,18,14.3
 2002/12/01,19:00,19,51,17.9,14.3
 2002/12/01,19:15,19,51,17.9,14.4
 2002/12/01,19:30,19,51,17.9,14.5
 2002/12/01,19:45,18.9,51,17.9,14.5
 2002/12/01,20:00,18.9,51,17.9,14.6
 2002/12/01,20:15,18.9,51,18,14.7
 2002/12/01,20:30,18.9,51,17.9,14.7
 2002/12/01,20:45,18.9,51,17.9,14.8
 2002/12/01,21:00,18.9,51,18,14.8
 2002/12/01,21:15,19.1,52,17.9,14.9
 2002/12/01,21:30,19.1,51,17.9,14.9
 2002/12/01,21:45,19.2,51,18,15
 2002/12/01,22:00,19.2,51,18,15.1
 2002/12/01,22:15,19.2,51,17.9,14.3
 2002/12/01,22:30,19.3,51,17.9,14.4
 2002/12/01,22:45,19.3,52,17.9,14.4
 2002/12/01,23:00,19.3,51,17.9,14.3
 2002/12/01,23:15,19.2,51,17.9,14.4
 2002/12/01,23:30,19.2,51,18,14.4
 2002/12/01,23:45,19.2,51,17.9,14.5
 2002/12/02, 0:00,19.2,51,17.9,14.5
 2002/12/02, 0:15,19.2,51,17.8,14.6
 2002/12/02, 0:30,19.2,51,17.8,14.6
 2002/12/02, 0:45,19.3,52,17.8,14.7
 2002/12/02, 1:00,19.2,52,17.8,14.8
 2002/12/02, 1:15,19.2,52,17.8,14.8
 2002/12/02, 1:30,19.2,51,17.8,14.9
 2002/12/02, 1:45,19.2,51,17.9,14.9
 2002/12/02, 2:00,19.1,51,17.8,15
 2002/12/02, 2:15,19.1,51,17.8,15.1
 2002/12/02, 2:30,19.2,51,17.8,15.1
 2002/12/02, 2:45,19.1,52,17.8,15.2
 2002/12/02, 3:00,19.2,51,17.8,15.2
 2002/12/02, 3:15,19.1,51,17.8,15.3
 2002/12/02, 3:30,19.2,51,17.8,15.4
 2002/12/02, 3:45,19.1,52,17.9,15.4
 2002/12/02, 4:00,19.1,52,17.8,15.5
 2002/12/02, 4:15,19.1,52,17.7,15.6
 2002/12/02, 4:30,19.1,52,17.7,15.6
 2002/12/02, 4:45,19.1,52,17.9,15.7
 2002/12/02, 5:00,19,52,17.9,15.7
 2002/12/02, 5:15,19,52,17.8,15.8
 2002/12/02, 5:30,19,52,17.8,15.9
 2002/12/02, 5:45,19,52,17.8,15.9
 2002/12/02, 6:00,19,52,17.8,16
 2002/12/02, 6:15,19,52,17.9,16
 2002/12/02, 6:30,19,52,17.8,16.1
 2002/12/02, 6:45,19.1,52,17.8,16.1
 2002/12/02, 7:00,19.1,53,17.8,13.5
 2002/12/02, 7:15,19.2,55,18,13.6
 2002/12/02, 7:30,19.2,54,18,12.9
 2002/12/02, 7:45,19.3,52,17.9,13
 2002/12/02, 8:00,19.4,50,17.8,13.1
 2002/12/02, 8:15,19.5,49,17.6,13.2
 2002/12/02, 8:30,19.4,49,17.7,13.3
 2002/12/02, 8:45,19.4,49,17.7,13.3
 2002/12/02, 9:00,19.4,49,17.8,13.4
 2002/12/02, 9:15,19.4,49,17.8,13.5
 2002/12/02, 9:30,19.3,50,18,13.6
 2002/12/02, 9:45,19.4,50,18,13.6
 2002/12/02,10:00,19.4,50,17.8,13.7
 2002/12/02,10:15,19.4,49,17.8,13.8
 2002/12/02,10:30,19.4,49,17.8,13.8
 2002/12/02,10:45,19.3,49,18,13.9
 2002/12/02,11:00,19.3,48,17.9,14
 2002/12/02,11:15,19.4,48,17.9,14.1
 2002/12/02,11:30,19.4,48,17.9,14.2
 2002/12/02,11:45,19.3,49,17.9,14.2
 2002/12/02,12:00,19.3,48,18.1,14.3
 2002/12/02,12:15,19.3,49,18.1,14.3
 2002/12/02,12:30,19.3,49,18.1,14.4
 2002/12/02,12:45,19.3,49,18.2,14.5
 2002/12/02,13:00,19.3,48,18.1,14.5
 2002/12/02,13:15,19.3,48,18,14.6
 2002/12/02,13:30,19.3,48,18.1,14.7
 2002/12/02,13:45,19.2,48,18.1,14.7
 2002/12/02,14:00,19.2,47,18.1,14.8
 2002/12/02,14:15,19.2,47,18.1,14.9
 2002/12/02,14:30,19.2,47,18,14.9
 2002/12/02,14:45,19.3,47,18.1,15
 2002/12/02,15:00,19.3,46,18.2,15.1
 2002/12/02,15:15,19.2,47,18.1,15.1
 2002/12/02,15:30,19.3,48,18.1,15.2
 2002/12/02,15:45,19.2,48,18.1,15.3
 2002/12/02,16:00,19.2,48,18.1,15.3
 2002/12/02,16:15,19.2,48,18.1,15.4
 2002/12/02,16:30,19.2,47,18,15.5
 2002/12/02,16:45,19.1,48,18,15.5
 2002/12/02,17:00,19.1,48,18.1,15.6
 2002/12/02,17:15,19.1,48,18.1,15.7
 2002/12/02,17:30,19.1,48,18,15.7
 2002/12/02,17:45,19.1,48,18.1,15.8
 2002/12/02,18:00,19.1,48,17.9,15.8
 2002/12/02,18:15,19,49,18,15.9
 2002/12/02,18:30,19,49,18,15.9
 2002/12/02,18:45,19,49,18,16
 2002/12/02,19:00,19,49,18.1,16.1
 2002/12/02,19:15,19,49,18,16.1
 2002/12/02,19:30,18.9,49,18,16.2
 2002/12/02,19:45,18.9,49,18.1,16.2
 2002/12/02,20:00,19,49,17.9,16.3
 2002/12/02,20:15,18.9,49,17.9,16.3
 2002/12/02,20:30,19,48,17.9,16.4
 2002/12/02,20:45,18.9,48,17.9,16.4
 2002/12/02,21:00,18.9,48,17.8,16.5
 2002/12/02,21:15,18.9,48,17.8,16.5
 2002/12/02,21:30,18.9,48,17.7,16.6
 2002/12/02,21:45,18.9,48,17.7,16.6
 2002/12/02,22:00,18.9,48,17.8,16.7
 2002/12/02,22:15,18.9,48,17.8,16.7
 2002/12/02,22:30,18.4,42,17.8,16.8
 2002/12/02,22:45,18.9,47,17.9,16.8
 2002/12/02,23:00,19.1,49,17.8,16.8
 2002/12/02,23:15,19.3,50,17.7,16.9
 2002/12/02,23:30,19.4,50,17.8,16.9
 2002/12/02,23:45,19.4,50,17.7,17
 2002/12/03, 0:00,19.4,50,17.7,17
 2002/12/03, 0:15,19.5,50,17.7,17
 2002/12/03, 0:30,19.4,50,17.8,17.1
 2002/12/03, 0:45,19.4,50,17.8,17.1
 2002/12/03, 1:00,19.4,50,17.8,17.2
 2002/12/03, 1:15,19.3,50,17.8,17.2
 2002/12/03, 1:30,19.4,50,17.8,17.2
 2002/12/03, 1:45,19.3,50,17.7,17.3
 2002/12/03, 2:00,19.4,50,17.7,17.3
 2002/12/03, 2:15,19.4,50,17.8,17.3
 2002/12/03, 2:30,19.4,50,17.7,17.4
 2002/12/03, 2:45,19.3,51,17.8,17.4
 2002/12/03, 3:00,19.4,50,17.7,17.4
 2002/12/03, 3:15,19.4,50,17.8,17.5
 2002/12/03, 3:30,19.4,50,17.7,17.5
 2002/12/03, 3:45,19.4,50,17.7,17.5
 2002/12/03, 4:00,19.4,51,17.8,17.6
 2002/12/03, 4:15,19.4,51,17.7,17.6
 2002/12/03, 4:30,19.3,50,17.8,17.6
 2002/12/03, 4:45,19.3,50,17.7,17.7
 2002/12/03, 5:00,19.3,50,17.8,17.7
 2002/12/03, 5:15,19.3,50,17.9,17.7
 2002/12/03, 5:30,19.3,51,17.8,17.8
 2002/12/03, 5:45,19.3,51,17.8,17.8
 2002/12/03, 6:00,19.2,50,17.9,17.8
 2002/12/03, 6:15,19.2,50,17.9,17.8
 2002/12/03, 6:30,19.2,50,17.9,17.9
 2002/12/03, 6:45,19.2,51,17.9,17.9
 2002/12/03, 7:00,19.3,51,18,13.5
 2002/12/03, 7:15,19.3,50,18,13.6
 2002/12/03, 7:30,19.6,48,17.9,13.6
 2002/12/03, 7:45,19.6,44,17.7,13.7
 2002/12/03, 8:00,19.7,47,17.5,13.8
 2002/12/03, 8:15,19.9,46,17.5,13.9
 2002/12/03, 8:30,20,47,17.8,13.9
 2002/12/03, 8:45,20,47,18.1,14
 2002/12/03, 9:00,20.1,47,18.1,14.1
 2002/12/03, 9:15,20,48,18.2,14.2
 2002/12/03, 9:30,20,48,18.2,14.2
 2002/12/03, 9:45,19.9,48,18.2,14.3
 2002/12/03,10:00,19.8,48,18.2,14.3
 2002/12/03,10:15,19.8,48,18.3,14.4
 2002/12/03,10:30,19.7,49,18.2,14.5
 2002/12/03,10:45,19.7,49,18.2,14.5
 2002/12/03,11:00,19.6,49,18.2,14.6
 2002/12/03,11:15,19.6,49,18.2,14.7
 2002/12/03,11:30,19.5,49,18.3,14.7
 2002/12/03,11:45,19.5,49,18.2,14.8
 2002/12/03,12:00,19.5,49,18.2,14.9
 2002/12/03,12:15,19.5,49,18.2,14.9
 2002/12/03,12:30,19.4,49,18.2,15
 2002/12/03,12:45,19.4,49,18.2,15
 2002/12/03,13:00,19.4,49,18.3,15.1
 2002/12/03,13:15,19.4,49,18.3,15.2
 2002/12/03,13:30,19.4,49,18.4,15.3
 2002/12/03,13:45,19.4,49,18.3,15.3
 2002/12/03,14:00,19.4,49,18.4,15.4
 2002/12/03,14:15,19.4,48,18.3,15.5
 2002/12/03,14:30,19.4,48,18.3,15.5
 2002/12/03,14:45,19.4,49,18.4,15.6
 2002/12/03,15:00,19.4,49,18.4,15.7
 2002/12/03,15:15,19.3,49,18.3,15.7
 2002/12/03,15:30,19.3,48,18.3,15.8
 2002/12/03,15:45,19.3,48,18.4,15.8
 2002/12/03,16:00,19.3,48,18.3,15.9
 2002/12/03,16:15,19.3,48,18.4,16
 2002/12/03,16:30,19.2,48,18.4,16
 2002/12/03,16:45,19.3,48,18.4,16.1
 2002/12/03,17:00,19.2,48,18.3,16.1
 2002/12/03,17:15,19.2,48,18.4,16.2
 2002/12/03,17:30,19.2,49,18.2,16.2
 2002/12/03,17:45,19.2,49,18.2,16.3
 2002/12/03,18:00,19.2,48,18.3,16.3
 2002/12/03,18:15,19.2,48,18.3,16.4
 2002/12/03,18:30,19.2,48,18.3,16.5
 2002/12/03,18:45,19.2,48,18.2,16.5
 2002/12/03,19:00,19.1,48,18.2,16.5
 2002/12/03,19:15,19.2,48,18.2,16.6
 2002/12/03,19:30,19.1,48,18.2,16.6
 2002/12/03,19:45,19.1,48,18.2,16.7
 2002/12/03,20:00,19.1,47,18.2,16.8
 2002/12/03,20:15,19.1,47,18.3,16.8
 2002/12/03,20:30,19,47,18.3,16.8
 2002/12/03,20:45,19,47,18.3,16.9
 2002/12/03,21:00,19.2,47,18.2,16.9
 2002/12/03,21:15,19.2,47,18.2,17
 2002/12/03,21:30,19.4,47,18.2,17
 2002/12/03,21:45,19.4,47,18.2,17
 2002/12/03,22:00,19.4,48,18.2,17.1
 2002/12/03,22:15,19.5,48,18.2,17.1
 2002/12/03,22:30,19.6,47,18.2,17.2
 2002/12/03,22:45,19.6,47,18.2,17.2
 2002/12/03,23:00,19.6,48,18.3,17.2
 2002/12/03,23:15,19.6,44,18.1,17.3
 2002/12/03,23:30,19.7,43,18,17.3
 2002/12/03,23:45,19.6,42,17.8,17.4
 2002/12/04, 0:00,19.6,42,17.8,17.4
 2002/12/04, 0:15,19.6,43,17.9,17.4
 2002/12/04, 0:30,19.5,44,18,17.4
 2002/12/04, 0:45,19.5,44,18.1,17.5
 2002/12/04, 1:00,19.5,45,18.1,17.5
 2002/12/04, 1:15,19.5,46,18.1,17.6
 2002/12/04, 1:30,19.5,46,18.2,17.6
 2002/12/04, 1:45,19.6,46,18,17.6
 2002/12/04, 2:00,19.6,47,18.1,17.7
 2002/12/04, 2:15,19.6,47,18.1,17.7
 2002/12/04, 2:30,19.6,47,18.1,17.7
 2002/12/04, 2:45,19.6,47,18.2,17.7
 2002/12/04, 3:00,19.6,47,18.1,17.8
 2002/12/04, 3:15,19.5,47,18.2,17.8
 2002/12/04, 3:30,19.5,47,18.1,17.8
 2002/12/04, 3:45,19.4,47,18.2,17.8
 2002/12/04, 4:00,19.4,47,18.2,17.9
 2002/12/04, 4:15,19.3,47,18.3,17.9
 2002/12/04, 4:30,19.3,47,18.3,17.9
 2002/12/04, 4:45,19.3,47,18.2,17.9
 2002/12/04, 5:00,19.2,47,18.3,18
 2002/12/04, 5:15,19.2,47,18.2,18
 2002/12/04, 5:30,19.1,47,18.2,18
 2002/12/04, 5:45,19.1,47,18.2,18.1
 2002/12/04, 6:00,19,47,18.3,18.1
 2002/12/04, 6:15,19,47,18.2,18.1
 2002/12/04, 6:30,19,47,18.2,18.1
 2002/12/04, 6:45,18.9,48,18.2,18.2
 2002/12/04, 7:00,19,48,18.2,18.2
 2002/12/04, 7:15,18.5,50,18.1,13.1
 2002/12/04, 7:30,18.8,50,18.2,13.2
 2002/12/04, 7:45,18.9,50,18.3,13
 2002/12/04, 8:00,19,50,18.2,13.1
 2002/12/04, 8:15,18.9,50,18.1,13.2
 2002/12/04, 8:30,18.9,49,18,13.3
 2002/12/04, 8:45,19,49,17.9,13.4
 2002/12/04, 9:00,18.9,50,18.1,13.5
 2002/12/04, 9:15,19,49,18.2,13.6
 2002/12/04, 9:30,19,49,18.2,13.6
 2002/12/04, 9:45,19,49,18.2,13.7
 2002/12/04,10:00,19,49,18.2,13.8
 2002/12/04,10:15,19,49,18.4,13.9
 2002/12/04,10:30,19.1,50,18.3,13.9
 2002/12/04,10:45,19.2,50,18.3,14
 2002/12/04,11:00,19.1,50,18.3,14.1
 2002/12/04,11:15,19.2,50,18.3,14.2
 2002/12/04,11:30,19.2,50,18.3,14.2
 2002/12/04,11:45,19.2,50,18.4,14.3
 2002/12/04,12:00,19.2,50,18.3,14.4
 2002/12/04,12:15,19.3,50,18.4,14.4
 2002/12/04,12:30,19.3,50,18.5,14.5
 2002/12/04,12:45,19.3,50,18.5,14.5
 2002/12/04,13:00,19.2,50,18.6,14.6
 2002/12/04,13:15,19.3,50,18.5,14.7
 2002/12/04,13:30,19.3,50,18.5,14.8
 2002/12/04,13:45,19.3,50,18.5,14.8
 2002/12/04,14:00,19.3,50,18.5,14.9
 2002/12/04,14:15,19.3,50,18.5,14.9
 2002/12/04,14:30,19.4,50,18.5,15
 2002/12/04,14:45,19.4,50,18.5,15.1
 2002/12/04,15:00,19.3,50,18.5,15.1
 2002/12/04,15:15,19.3,50,18.6,15.2
 2002/12/04,15:30,19.4,50,18.5,15.3
 2002/12/04,15:45,19.3,50,18.5,15.4
 2002/12/04,16:00,19.4,50,18.5,15.4
 2002/12/04,16:15,19.3,50,18.5,15.5
 2002/12/04,16:30,19.3,50,18.6,15.6
 2002/12/04,16:45,19.4,49,18.6,15.6
 2002/12/04,17:00,19.3,50,18.5,15.7
 2002/12/04,17:15,19.3,50,18.5,15.8
 2002/12/04,17:30,19.3,50,18.5,15.8
 2002/12/04,17:45,19.3,50,18.6,15.9
 2002/12/04,18:00,19.3,50,18.6,15.9
 2002/12/04,18:15,19.3,50,18.4,16
 2002/12/04,18:30,19.4,50,18.4,16.1
 2002/12/04,18:45,19.4,50,18.5,16.1
 2002/12/04,19:00,19.4,50,18.4,16.2
 2002/12/04,19:15,19.4,50,18.4,16.2
 2002/12/04,19:30,19.4,50,18.6,16.3
 2002/12/04,19:45,19.4,50,18.5,16.3
 2002/12/04,20:00,19.4,50,18.5,16.4
 2002/12/04,20:15,19.3,50,18.5,16.5
 2002/12/04,20:30,19.3,50,18.5,16.5
 2002/12/04,20:45,19.4,50,18.5,16.6
 2002/12/04,21:00,19.4,50,18.5,16.6
 2002/12/04,21:15,19.3,50,18.5,16.7
 2002/12/04,21:30,19.3,50,18.5,16.7
 2002/12/04,21:45,19.4,50,18.6,16.8
 2002/12/04,22:00,19.4,50,18.5,16.8
 2002/12/04,22:15,19.3,50,18.5,16.9
 2002/12/04,22:30,19.4,50,18.6,16.9
 2002/12/04,22:45,19.4,50,18.5,16.9
 2002/12/04,23:00,19.4,50,18.5,17
 2002/12/04,23:15,19.4,50,18.5,17
 2002/12/04,23:30,19.4,50,18.4,17.1
 2002/12/04,23:45,19.4,50,18.5,17.1
 2002/12/05, 0:00,19.4,50,18.6,17.2
 2002/12/05, 0:15,19.4,50,18.5,17.2
 2002/12/05, 0:30,19.4,50,18.5,17.2
 2002/12/05, 0:45,19.5,51,18.5,16.4
 2002/12/05, 1:00,19.6,52,18.6,16.4
 2002/12/05, 1:15,19.6,51,18.7,16.5
 2002/12/05, 1:30,19.6,52,18.6,16.5
 2002/12/05, 1:45,19.6,51,18.6,16.6
 2002/12/05, 2:00,19.6,51,18.5,16.6
 2002/12/05, 2:15,19.6,51,18.5,16.7
 2002/12/05, 2:30,19.6,51,18.5,16.7
 2002/12/05, 2:45,19.6,51,18.6,16.8
 2002/12/05, 3:00,19.6,51,18.6,16.8
 2002/12/05, 3:15,19.6,51,18.6,16.9
 2002/12/05, 3:30,19.6,51,18.5,16.9
 2002/12/05, 3:45,19.6,51,18.5,16.9
 2002/12/05, 4:00,19.6,51,18.5,17
 2002/12/05, 4:15,19.6,51,18.5,17
 2002/12/05, 4:30,19.6,51,18.5,17.1
 2002/12/05, 4:45,19.6,51,18.5,17.1
 2002/12/05, 5:00,19.6,51,18.5,17.2
 2002/12/05, 5:15,19.6,51,18.6,17.2
 2002/12/05, 5:30,19.5,51,18.5,17.2
 2002/12/05, 5:45,19.5,51,18.6,17.3
 2002/12/05, 6:00,19.5,51,18.5,17.3
 2002/12/05, 6:15,19.5,52,18.6,17.4
 2002/12/05, 6:30,19.5,52,18.6,17.4
 2002/12/05, 6:45,19.5,52,18.5,17.5
 2002/12/05, 7:00,19.7,52,18.6,14.3
 2002/12/05, 7:15,19.7,52,18.7,14.4
 2002/12/05, 7:30,19.8,52,18.6,14
 2002/12/05, 7:45,19.8,53,18.9,14.1
 2002/12/05, 8:00,19.9,52,18.7,14.2
 2002/12/05, 8:15,19.8,51,18.6,14.2
 2002/12/05, 8:30,19.8,51,18.4,14.3
 2002/12/05, 8:45,19.8,51,18.3,14.4
 2002/12/05, 9:00,19.8,51,18.5,14.4
 2002/12/05, 9:15,19.9,52,18.6,14.5
 2002/12/05, 9:30,20,52,18.6,14.6
 2002/12/05, 9:45,20.1,52,18.8,14.6
 2002/12/05,10:00,20.1,52,18.8,14.7
 2002/12/05,10:15,20.1,52,18.8,14.8
 2002/12/05,10:30,20.1,52,18.9,14.8
 2002/12/05,10:45,20.1,52,18.7,14.9
 2002/12/05,11:00,20.1,52,18.8,15
 2002/12/05,11:15,20.1,52,18.8,15
 2002/12/05,11:30,20.1,52,18.8,15.1
 2002/12/05,11:45,20.1,52,18.9,15.2
 2002/12/05,12:00,20.1,52,18.9,15.3
 2002/12/05,12:15,20.1,52,18.9,15.3
 2002/12/05,12:30,20.1,52,18.9,15.4
 2002/12/05,12:45,20.1,52,19,15.5
 2002/12/05,13:00,20.1,52,19,15.6
 2002/12/05,13:15,20.1,52,19,15.6
 2002/12/05,13:30,20.1,51,19,15.7
 2002/12/05,13:45,20.1,51,19,15.8
 2002/12/05,14:00,20.1,51,19,15.8
 2002/12/05,14:15,20.1,51,19.1,15.9
 2002/12/05,14:30,20.1,51,19,16
 2002/12/05,14:45,20.1,51,19.1,16
 2002/12/05,15:00,20,51,19.1,16.1
 2002/12/05,15:15,20,51,19.1,16.2
 2002/12/05,15:30,20,51,19.1,16.2
 2002/12/05,15:45,20,51,19.2,16.3
 2002/12/05,16:00,20,51,19.3,16.3
 2002/12/05,16:15,20,51,19.1,16.4
 2002/12/05,16:30,20,51,19.2,16.5
 2002/12/05,16:45,20,51,19,16.5
 2002/12/05,17:00,20,51,19,16.6
 2002/12/05,17:15,19.9,51,19,16.6
 2002/12/05,17:30,19.9,52,19.1,16.7
 2002/12/05,17:45,19.9,52,19.1,16.7
 2002/12/05,18:00,19.9,51,19.1,16.8
 2002/12/05,18:15,19.9,52,19,16.8
 2002/12/05,18:30,19.9,52,19,16.9
 2002/12/05,18:45,19.9,52,19,16.9
 2002/12/05,19:00,19.8,52,18.9,17
 2002/12/05,19:15,19.9,52,18.9,17.1
 2002/12/05,19:30,19.9,52,18.9,17.1
 2002/12/05,19:45,19.8,52,18.9,17.1
 2002/12/05,20:00,19.9,52,18.9,17.2
 2002/12/05,20:15,19.9,52,19.1,17.2
 2002/12/05,20:30,19.8,52,19,17.3
 2002/12/05,20:45,19.9,52,18.9,17.3
 2002/12/05,21:00,19.9,51,18.9,17.4
 2002/12/05,21:15,19.9,51,18.9,17.4
 2002/12/05,21:30,19.9,51,18.9,17.5
 2002/12/05,21:45,19.8,51,18.8,17.5
 2002/12/05,22:00,19.8,51,18.8,17.5
 2002/12/05,22:15,19.8,51,18.8,17.6
 2002/12/05,22:30,19.8,51,18.8,17.6
 2002/12/05,22:45,19.8,51,18.7,17.7
 2002/12/05,23:00,19.8,50,18.7,17.7
 2002/12/05,23:15,19.8,50,18.7,17.7
 2002/12/05,23:30,19.8,50,18.6,17.8
 2002/12/05,23:45,19.8,49,18.6,17.8
 2002/12/06, 0:00,19.7,49,18.5,17.9
 2002/12/06, 0:15,19.7,49,18.6,17.9
 2002/12/06, 0:30,19.8,50,18.7,17.9
 2002/12/06, 0:45,19.7,50,18.6,17.9
 2002/12/06, 1:00,19.8,49,18.6,18
 2002/12/06, 1:15,19.7,49,18.6,18
 2002/12/06, 1:30,19.8,50,18.7,18.1
 2002/12/06, 1:45,19.8,50,18.7,18.1
 2002/12/06, 2:00,19.8,50,18.8,18.1
 2002/12/06, 2:15,19.8,50,18.8,18.1
 2002/12/06, 2:30,19.8,50,18.7,18.2
 2002/12/06, 2:45,19.8,50,18.7,18.2
 2002/12/06, 3:00,19.8,50,18.7,18.2
 2002/12/06, 3:15,19.9,50,18.8,18.3
 2002/12/06, 3:30,19.8,50,18.8,18.3
 2002/12/06, 3:45,19.9,50,18.9,18.3
 2002/12/06, 4:00,19.9,50,18.9,18.4
 2002/12/06, 4:15,19.9,50,19,18.4
 2002/12/06, 4:30,19.9,50,18.8,18.4
 2002/12/06, 4:45,19.9,50,18.9,18.4
 2002/12/06, 5:00,19.8,50,18.9,18.5
 2002/12/06, 5:15,19.8,51,18.8,18.5
 2002/12/06, 5:30,19.8,50,18.8,18.5
 2002/12/06, 5:45,19.8,50,18.9,18.6
 2002/12/06, 6:00,19.8,50,18.8,18.6
 2002/12/06, 6:15,19.8,50,18.8,18.6
 2002/12/06, 6:30,19.8,50,18.8,18.6
 2002/12/06, 6:45,19.9,51,18.7,18.7
 2002/12/06, 7:00,19.9,50,18.9,14.4
 2002/12/06, 7:15,19.9,50,18.9,14.3
 2002/12/06, 7:30,20,50,19,14.3
 2002/12/06, 7:45,18.9,47,18.7,14.4
 2002/12/06, 8:00,19.4,44,18.6,14.5
 2002/12/06, 8:15,19.5,43,18.4,14.6
 2002/12/06, 8:30,19.6,43,18.4,14.6
 2002/12/06, 8:45,19.8,44,18.7,14.7
 2002/12/06, 9:00,20,45,18.9,14.8
 2002/12/06, 9:15,20,46,19,14.8
 2002/12/06, 9:30,20,46,19,14.9
 2002/12/06, 9:45,20,47,18.9,15
 2002/12/06,10:00,20,46,19,15
 2002/12/06,10:15,20,47,19,15.1
 2002/12/06,10:30,20,47,18.9,15.2
 2002/12/06,10:45,20,47,18.7,15.3
 2002/12/06,11:00,20,46,18.6,15.3
 2002/12/06,11:15,20,46,18.8,15.4
 2002/12/06,11:30,20,47,18.7,15.5
 2002/12/06,11:45,20,46,18.6,15.6
 2002/12/06,12:00,20,46,18.6,15.6
 2002/12/06,12:15,20,47,18.7,15.7
 2002/12/06,12:30,19.9,47,18.8,15.8
 2002/12/06,12:45,19.9,47,18.8,15.8
 2002/12/06,13:00,19.8,47,19,15.9
 2002/12/06,13:15,19.8,47,18.7,16
 2002/12/06,13:30,19.9,47,18.9,16
 2002/12/06,13:45,19.8,46,18.9,16.1
 2002/12/06,14:00,19.7,46,19,16.2
 2002/12/06,14:15,19.7,46,19,16.2
 2002/12/06,14:30,19.8,46,18.8,16.3
 2002/12/06,14:45,19.7,46,18.8,16.4
 2002/12/06,15:00,19.7,45,18.6,16.4
 2002/12/06,15:15,19.8,45,18.5,16.5
 2002/12/06,15:30,19.7,46,18.5,16.5
 2002/12/06,15:45,19.7,45,18.5,16.6
 2002/12/06,16:00,19.7,46,18.8,16.6
 2002/12/06,16:15,19.6,46,18.7,16.7
 2002/12/06,16:30,19.6,46,18.5,16.8
 2002/12/06,16:45,19.6,46,18.4,16.8
 2002/12/06,17:00,19.6,46,18.5,16.9
 2002/12/06,17:15,19.5,46,18.3,16.9
 2002/12/06,17:30,19.5,46,18.3,17
 2002/12/06,17:45,19.5,47,18.3,17
 2002/12/06,18:00,19.5,47,18.3,17.1
 2002/12/06,18:15,19.4,47,18.4,17.1
 2002/12/06,18:30,19.4,47,18.4,17.2
 2002/12/06,18:45,19.4,47,18.3,17.2
 2002/12/06,19:00,19.4,47,18.3,17.2
 2002/12/06,19:15,19.4,47,18.4,17.3
 2002/12/06,19:30,19.3,47,18.3,17.3
 2002/12/06,19:45,19.3,47,18.2,17.4
 2002/12/06,20:00,19.4,46,18.2,17.4
 2002/12/06,20:15,19.4,46,18.2,17.5
 2002/12/06,20:30,19.4,46,18.2,17.5
 2002/12/06,20:45,19.3,46,18.2,17.6
 2002/12/06,21:00,19.3,47,18.1,17.6
 2002/12/06,21:15,19.3,46,18.2,17.6
 2002/12/06,21:30,19.3,47,18.2,17.7
 2002/12/06,21:45,19.3,47,18.1,17.7
 2002/12/06,22:00,19.3,46,18.1,17.7
 2002/12/06,22:15,19.3,46,18.1,17.8
 2002/12/06,22:30,19.3,46,18.1,17.8
 2002/12/06,22:45,19.3,46,18,17.8
 2002/12/06,23:00,19.3,47,18.2,17.9
 2002/12/06,23:15,19.3,47,18.3,17.9
 2002/12/06,23:30,19.2,46,18.3,17.9
 2002/12/06,23:45,19.2,46,18.4,18
 2002/12/07, 0:00,19.1,45,18.3,18
 2002/12/07, 0:15,19.1,45,18.5,18
 2002/12/07, 0:30,19.1,44,18.4,18.1
 2002/12/07, 0:45,19.1,44,18.5,18.1
 2002/12/07, 1:00,19.1,44,18.4,18.1
 2002/12/07, 1:15,19.1,44,18.4,18.2
 2002/12/07, 1:30,19.1,44,18.4,18.2
 2002/12/07, 1:45,19.1,44,18.4,18.2
 2002/12/07, 2:00,19.1,44,18.4,18.2
 2002/12/07, 2:15,19,44,18.4,18.3
 2002/12/07, 2:30,19,44,18.5,18.3
 2002/12/07, 2:45,19,44,18.5,18.3
 2002/12/07, 3:00,19,44,18.5,18.4
 2002/12/07, 3:15,19,44,18.4,18.4
 2002/12/07, 3:30,19,43,18.5,18.4
 2002/12/07, 3:45,19,44,18.4,18.4
 2002/12/07, 4:00,19.1,44,18.5,18.5
 2002/12/07, 4:15,19.1,44,18.6,18.5
 2002/12/07, 4:30,19.1,45,18.5,18.5
 2002/12/07, 4:45,19.1,45,18.4,18.5
 2002/12/07, 5:00,19.2,45,18.6,18.5
 2002/12/07, 5:15,19.2,45,18.6,18.6
 2002/12/07, 5:30,19.2,45,18.6,18.6
 2002/12/07, 5:45,19.2,45,18.6,18.6
 2002/12/07, 6:00,19.2,45,18.4,18.6
 2002/12/07, 6:15,19.2,45,18.4,18.7
 2002/12/07, 6:30,19.2,46,18.3,18.7
 2002/12/07, 6:45,19.2,46,18.3,18.7
 2002/12/07, 7:00,19.2,46,18.3,18.7
 2002/12/07, 7:15,19.2,47,18.4,18.7
 2002/12/07, 7:30,19.2,46,18.4,18.8
 2002/12/07, 7:45,19.2,46,18.5,18.8
 2002/12/07, 8:00,19.2,46,18.4,18.8
 2002/12/07, 8:15,19.2,46,18.5,18.8
 2002/12/07, 8:30,19.1,46,18.5,17.1
 2002/12/07, 8:45,19.2,46,18.5,13.7
 2002/12/07, 9:00,19.2,46,18.5,13.8
 2002/12/07, 9:15,19.3,46,18.5,13.9
 2002/12/07, 9:30,19.2,46,18.6,14
 2002/12/07, 9:45,19.2,45,18.6,14.1
 2002/12/07,10:00,19.2,45,18.5,14
 2002/12/07,10:15,18.4,32,18.5,14.1
 2002/12/07,10:30,18.5,42,18.3,14.1
 2002/12/07,10:45,18.8,42,18.4,13.8
 2002/12/07,11:00,18.9,43,18.4,13.9
 2002/12/07,11:15,19,44,18.4,14
 2002/12/07,11:30,19.4,45,18.7,14.1
 2002/12/07,11:45,19.4,46,18.7,14.1
 2002/12/07,12:00,19.5,50,18.7,14.2
 2002/12/07,12:15,19.2,47,18.6,14.3
 2002/12/07,12:30,19.3,47,18.5,14.3
 2002/12/07,12:45,19.5,47,18.6,14.4
 2002/12/07,13:00,19.5,47,18.5,14.5
 2002/12/07,13:15,19.5,48,18.6,14.5
 2002/12/07,13:30,19.5,47,18.5,14.6
 2002/12/07,13:45,19.4,47,18.5,14.6
 2002/12/07,14:00,19.4,46,18.5,14.7
 2002/12/07,14:15,19.4,45,18.3,14.7
 2002/12/07,14:30,19.4,45,18.1,14.8
 2002/12/07,14:45,19.2,43,17.9,14.9
 2002/12/07,15:00,19.2,44,18.1,14.9
 2002/12/07,15:15,19.2,45,18.2,15
 2002/12/07,15:30,19.2,46,18.3,15
 2002/12/07,15:45,19.1,46,18.4,15.1
 2002/12/07,16:00,19.1,47,18.4,15.2
 2002/12/07,16:15,19.1,47,18.3,15.2
 2002/12/07,16:30,19.1,47,18.3,15.3
 2002/12/07,16:45,19,47,18.3,15.4
 2002/12/07,17:00,19,47,18.4,15.4
 2002/12/07,17:15,19,47,18.3,15.5
 2002/12/07,17:30,19,47,18.3,15.6
 2002/12/07,17:45,19,48,18.1,15.6
 2002/12/07,18:00,19,48,18.1,15.7
 2002/12/07,18:15,18.9,48,18.2,15.8
 2002/12/07,18:30,19,48,18,15.8
 2002/12/07,18:45,19,48,18.2,15.9
 2002/12/07,19:00,18.9,48,18.1,16
 2002/12/07,19:15,19.1,49,18.1,16
 2002/12/07,19:30,19.1,49,18.1,16.1
 2002/12/07,19:45,19.3,49,18.1,16.1
 2002/12/07,20:00,19.3,49,18.3,16.2
 2002/12/07,20:15,19.3,49,18.3,16.3